Location: Unspecified
(33.2407°S, 0.0000°E)
Time: 04:40:32
(UTC+00:00)

Envisat - Pass Details

Date: 20 May 2019
Orbit: 764 x 766 km, 98.1° (Epoch: 24 June)

Event Time Altitude Azimuth Distance (km) Brightness Sun altitude
Exits shadow 20:14:49 20° 287° (WNW) 1,713 5.3 -39.3°
Drops below altitude 10° 20:16:53 10° 306° (NW) 2,308 5.9 -39.8°
Sets 20:19:28 0° 318° (NW) 3,226 6.7 -40.3°
